Content
SEND FEEDBACK

Daily
Averages
Monthly
Summary
Mexico

LAGUNA BACALAR, QUINTANA ROO


Home > North America > Mexico > Quintana Roo
Elevation: 62 feet     Latitude: 18 45N     Longitude: 088 20W

WEATHER
 
SELECT A DAY
Number of Records: 122,454;   Date Range: 1/1/95 - 9/15/14
 
SHARE

PRINT THIS DATA

[ ← Previous Day ]
WEATHER ALMANAC - APRIL 19, 2014
[ Next Day → ]
[ °C ]   °F
Weather ElementAverageHighLow
Temperature81.4 °F92 °F (12:50 pm)73.4 °F (6:49 am)
Dewpoint73.1 °F77 °F (12:41 pm)66.2 °F (6:49 am)
Humidity74.4 %94 % (6:50 am)49 % (12:50 pm)
Barometer29.99 in30.04 in (9:50 am)29.93 in (5:42 pm)
Wind Speed6.8 mph17.3 mph (2:43 pm)
Weather ElementAverage
Visibility6.4 mi
Wind DirectionSE (139.4 °)

Weather ElementTotal
Precipitation---
Cooling Degree Days17.7 (Base 65)
Growing Degree Days32.7 (Base 50)
Averaged from 20 records on April 19, 2014
WEATHER CONDITIONS BREAKOUT
WIND DIRECTION BREAKOUT
WEATHER BY HOUR - APRIL 19, 2014
[ °C ]   °F
Local TimeTemperatureDewpointHumidityBarometerVisibilityWind DirectionWind SpeedGust SpeedPrecipitationEventsConditions
6:49 AM73.4 °F66.2 °F78 %29.99 in3.0 miNorth (350°)13.8 mphHaze
6:50 AM74.0 °F72.0 °F94 %30.00 in6.0 miNorth6.7 mphOvercast
7:42 AM73.4 °F66.2 °F78 %30.00 in7.0 miNorth (360°)11.5 mphMostly Cloudy
8:41 AM75.2 °F68.0 °F78 %30.02 in7.0 miNorth (360°)11.5 mphScattered Clouds
9:40 AM78.8 °F69.8 °F74 %30.03 in7.0 miNorth (360°)11.5 mphScattered Clouds
9:50 AM85.0 °F71.0 °F55 %30.04 in6.0 miNorth4.5 mphScattered Clouds
10:42 AM82.4 °F75.2 °F79 %30.02 in7.0 miNorth (360°)11.5 mphScattered Clouds
11:40 AM84.2 °F75.2 °F74 %30.01 in7.0 miNorth (350°)11.5 mphScattered Clouds
12:41 PM86.0 °F77.0 °F74 %29.99 in7.0 miCalmScattered Clouds
12:50 PM92.0 °F75.0 °F49 %30.00 in6.0 miNorth4.5 mphPartly Cloudy
1:45 PM87.8 °F77.0 °F70 %29.96 in7.0 miCalmMostly Cloudy
2:43 PM86.0 °F77.0 °F74 %29.94 in7.0 miEast (100°)17.3 mphOvercast
3:41 PM82.4 °F75.2 °F79 %29.96 in7.0 miEast (90°)17.3 mphOvercast
3:50 PM86.0 °F72.0 °F55 %29.97 in6.0 miEast (90°)6.7 mphOvercast
4:43 PM78.8 °F71.6 °F78 %29.94 in7.0 miCalmOvercast
5:42 PM80.6 °F73.4 °F79 %29.93 in7.0 miCalmMostly Cloudy
6:42 PM80.6 °F73.4 °F79 %29.96 in7.0 miCalmMostly Cloudy
6:50 PM81.0 °F76.0 °F82 %29.97 in6.0 miCalmRainLight Drizzle
7:00 PM81.0 °F76.0 °F82 %29.97 in6.0 miCalmRainLight Drizzle
9:50 PM80.0 °F74.0 °F77 %30.01 in5.0 miEast (90°)6.7 mphScattered Clouds
Hourly data recorded from MMCM, located miles away from Laguna Bacalar, Quintana Roo







STORIES FROM OUR PARTNERS